FW8057 Weather Reports


time (UTC)temp
C
wind
direction
speed
KPH
gust
KPH
rain 1hr
cm
rain 24hr
cm
rain mn
cm
humidity
%
barometer
mb
20260510190816 28 212 0.0 1.6 0.00 0.00 0.00 41 1013.6
20260510190313 27 227 1.6 3.2 0.00 0.00 0.00 39 1013.7
20260510185809 28 296 4.8 4.8 0.00 0.00 0.00 38 1013.6
20260510185307 28 228 3.2 3.2 0.00 0.00 0.00 40 1013.8
20260510184804 28 219 0.0 0.0 0.00 0.00 0.00 41 1013.8
20260510184301 28 328 3.2 3.2 0.00 0.00 0.00 39 1013.9
20260510183755 28 300 1.6 4.8 0.00 0.00 0.00 44 1013.9
20260510183250 27 206 0.0 0.0 0.00 0.00 0.00 46 1014.0
20260510182747 27 187 1.6 1.6 0.00 0.00 0.00 46 1014.0
20260510182243 28 179 0.0 1.6 0.00 0.00 0.00 43 1014.0
20260510181740 28 237 1.6 1.6 0.00 0.00 0.00 43 1014.1
20260510181237 27 301 3.2 3.2 0.00 0.00 0.00 46 1014.4
20260510180732 26 210 0.0 1.6 0.00 0.00 0.00 46 1014.1
20260510180230 27 291 3.2 3.2 0.00 0.00 0.00 43 1013.9
20260510175727 27 197 1.6 1.6 0.00 0.00 0.00 49 1014.3
20260510175222 26 179 1.6 1.6 0.00 0.00 0.00 50 1014.3
20260510174720 25 195 0.0 0.0 0.00 0.00 0.00 51 1014.2
20260510174217 26 211 1.6 3.2 0.00 0.00 0.00 49 1014.2
20260510173713 26 190 1.6 1.6 0.00 0.00 0.00 47 1014.2
20260510173209 26 216 1.6 1.6 0.00 0.00 0.00 48 1014.0
20260510172704 27 211 0.0 0.0 0.00 0.00 0.00 49 1014.2
20260510172200 26 229 0.0 0.0 0.00 0.00 0.00 47 1014.3
20260510171657 26 210 0.0 0.0 0.00 0.00 0.00 50 1014.3
20260510171155 27 234 3.2 3.2 0.00 0.00 0.00 46 1014.0
20260510170651 28 234 1.6 1.6 0.00 0.00 0.00 46 1014.4
20260510170148 28 205 0.0 1.6 0.00 0.00 0.00 49 1014.4
20260510165644 27 190 1.6 1.6 0.00 0.00 0.00 48 1014.6
20260510165139 27 230 0.0 1.6 0.00 0.00 0.00 45 1014.5
20260510164637 27 202 0.0 1.6 0.00 0.00 0.00 45 1014.6
20260510164134 26 218 1.6 3.2 0.00 0.00 0.00 48 1014.5
20260510163629 26 328 4.8 4.8 0.00 0.00 0.00 50 1014.4
20260510163125 26 72 1.6 3.2 0.00 0.00 0.00 51 1014.4
20260510162620 26 178 3.2 3.2 0.00 0.00 0.00 47 1014.6
20260510162117 26 202 0.0 0.0 0.00 0.00 0.00 48 1014.8
20260510161612 25 186 1.6 3.2 0.00 0.00 0.00 49 1014.9
20260510161110 26 218 1.6 1.6 0.00 0.00 0.00 48 1014.7
20260510160607 26 201 3.2 4.8 0.00 0.00 0.00 50 1014.8
20260510160106 26 224 3.2 3.2 0.00 0.00 0.00 49 1014.6
20260510155603 26 357 4.8 4.8 0.00 0.00 0.00 51 1014.7
20260510155100 26 192 0.0 0.0 0.00 0.00 0.00 53 1015.0
20260510154555 26 236 1.6 1.6 0.00 0.00 0.00 54 1014.9
20260510154050 25 185 3.2 3.2 0.00 0.00 0.00 52 1014.9
20260510153545 25 333 4.8 8.0 0.00 0.00 0.00 54 1015.2
20260510153043 25 293 3.2 3.2 0.00 0.00 0.00 53 1015.3
20260510152539 25 191 0.0 0.0 0.00 0.00 0.00 54 1015.2
20260510152036 25 168 0.0 0.0 0.00 0.00 0.00 58 1015.2
20260510151532 25 104 1.6 3.2 0.00 0.00 0.00 57 1014.7
20260510151030 25 154 1.6 1.6 0.00 0.00 0.00 56 1015.0
20260510150525 25 192 0.0 1.6 0.00 0.00 0.00 59 1014.8
20260510150021 24 99 1.6 1.6 0.00 0.00 0.00 64 1014.9
20260510145518 23 326 3.2 3.2 0.00 0.00 0.00 64 1014.9
20260510145014 23 348 4.8 8.0 0.00 0.00 0.00 66 1015.0
20260510144511 24 212 0.0 1.6 0.00 0.00 0.00 67 1014.8
20260510144007 23 322 4.8 4.8 0.00 0.00 0.00 67 1014.6
20260510143503 22 194 1.6 1.6 0.00 0.00 0.00 68 1014.8
20260510142959 23 322 4.8 4.8 0.00 0.00 0.00 67 1014.9
20260510142456 22 233 3.2 4.8 0.00 0.00 0.00 68 1014.9
20260510141953 22 204 1.6 3.2 0.00 0.00 0.00 69 1014.7
20260510141449 22 243 3.2 3.2 0.00 0.00 0.00 68 1015.0
20260510140947 22 315 4.8 4.8 0.00 0.00 0.00 70 1015.0
20260510140443 22 334 1.6 1.6 0.00 0.00 0.00 70 1014.8
20260510135942 22 8 3.2 3.2 0.00 0.00 0.00 70 1014.6
20260510135438 22 209 0.0 0.0 0.00 0.00 0.00 73 1015.0
20260510134935 22 170 1.6 3.2 0.00 0.00 0.00 73 1015.0
20260510134432 21 103 3.2 3.2 0.00 0.00 0.00 73 1014.9
20260510133928 22 29 4.8 4.8 0.00 0.00 0.00 75 1014.9
20260510133425 21 242 3.2 3.2 0.00 0.00 0.00 75 1015.0
20260510132920 21 307 3.2 3.2 0.00 0.00 0.00 78 1014.8
20260510132418 21 208 1.6 1.6 0.00 0.00 0.00 80 1014.7
20260510131915 21 229 3.2 3.2 0.00 0.00 0.00 80 1014.4
20260510131413 21 306 3.2 3.2 0.00 0.00 0.00 81 1014.6
20260510130909 21 204 1.6 1.6 0.00 0.00 0.00 82 1014.4
20260510130406 20 211 1.6 1.6 0.00 0.00 0.00 84 1014.7
20260510125903 20 209 1.6 1.6 0.00 0.00 0.00 86 1014.6
20260510125358 20 208 1.6 3.2 0.00 0.00 0.00 87 1014.3
20260510124856 19 339 4.8 4.8 0.00 0.00 0.00 88 1014.4
20260510124352 19 332 4.8 4.8 0.00 0.00 0.00 89 1014.3
20260510123848 18 230 3.2 3.2 0.00 0.00 0.00 91 1014.3
20260510123344 18 267 3.2 3.2 0.00 0.00 0.00 92 1014.5
20260510122840 18 239 1.6 1.6 0.00 0.00 0.00 94 1014.3
20260510122336 18 211 1.6 1.6 0.00 0.00 0.00 95 1014.3
20260510121833 18 205 0.0 0.0 0.00 0.00 0.00 95 1014.2
20260510121331 18 209 0.0 0.0 0.00 0.00 0.00 95 1014.2
20260510120827 17 208 0.0 0.0 0.00 0.00 0.00 95 1014.2
20260510120325 17 207 0.0 0.0 0.00 0.00 0.00 95 1014.3
20260510115820 17 216 1.6 1.6 0.00 0.00 0.00 95 1013.9
20260510115318 17 212 1.6 1.6 0.00 0.00 0.00 95 1014.1
20260510114813 17 192 0.0 1.6 0.00 0.00 0.00 95 1013.8
20260510114311 17 248 1.6 1.6 0.00 0.00 0.00 95 1013.8
20260510113805 17 207 0.0 0.0 0.00 0.00 0.00 95 1013.8
20260510113303 16 206 0.0 0.0 0.00 0.00 0.00 95 1013.7
20260510112759 16 206 0.0 0.0 0.00 0.00 0.00 95 1013.7
20260510112256 16 206 0.0 0.0 0.00 0.00 0.00 95 1013.6
20260510111752 16 206 0.0 0.0 0.00 0.00 0.00 95 1013.4
20260510111249 16 206 0.0 0.0 0.00 0.00 0.00 95 1013.4
20260510110748 16 206 0.0 0.0 0.00 0.00 0.00 95 1013.4
20260510110247 16 206 0.0 0.0 0.00 0.00 0.00 95 1013.4
20260510105746 16 206 0.0 0.0 0.00 0.00 0.00 95 1013.2
20260510105241 16 206 0.0 0.0 0.00 0.00 0.00 95 1013.0
20260510104738 16 207 0.0 0.0 0.00 0.00 0.00 95 1012.8
20260510104236 16 207 0.0 0.0 0.00 0.00 0.00 95 1013.1
20260510103731 16 207 0.0 0.0 0.00 0.00 0.00 95 1013.0
20260510103229 16 207 0.0 0.0 0.00 0.00 0.00 95 1012.8
20260510102728 16 225 1.6 1.6 0.00 0.00 0.00 95 1012.8
20260510102224 15 209 0.0 0.0 0.00 0.00 0.00 95 1012.7
20260510101722 15 202 0.0 0.0 0.00 0.00 0.00 95 1012.5
20260510101221 15 202 0.0 0.0 0.00 0.00 0.00 95 1012.3
20260510100716 15 202 0.0 0.0 0.00 0.00 0.00 95 1012.4
20260510100215 16 202 0.0 0.0 0.00 0.00 0.00 95 1012.3
20260510095709 16 202 0.0 0.0 0.00 0.00 0.00 95 1012.2
20260510095205 16 202 0.0 0.0 0.00 0.00 0.00 95 1012.1
20260510094703 16 202 0.0 0.0 0.00 0.00 0.00 95 1012.5
20260510094200 16 202 0.0 0.0 0.00 0.00 0.00 95 1012.3
20260510093655 16 203 0.0 0.0 0.00 0.00 0.00 95 1012.2
20260510093153 16 202 0.0 0.0 0.00 0.00 0.00 95 1012.1
20260510092649 16 202 0.0 0.0 0.00 0.00 0.00 95 1012.0
20260510092145 16 204 0.0 0.0 0.00 0.00 0.00 95 1012.0
20260510091641 16 204 0.0 0.0 0.00 0.00 0.00 95 1011.9
20260510091137 16 205 0.0 0.0 0.00 0.00 0.00 95 1011.5
20260510090634 16 206 0.0 0.0 0.00 0.00 0.00 95 1011.7
20260510090130 16 206 0.0 0.0 0.00 0.00 0.00 95 1011.6
20260510085626 16 206 0.0 0.0 0.00 0.00 0.00 95 1011.5
20260510085121 16 206 0.0 0.0 0.00 0.00 0.00 95 1011.3
20260510084618 16 216 1.6 1.6 0.00 0.00 0.00 95 1011.3
20260510084115 16 218 1.6 1.6 0.00 0.00 0.00 95 1011.3
20260510083611 16 195 0.0 0.0 0.00 0.00 0.00 95 1011.4
20260510083107 16 194 0.0 0.0 0.00 0.00 0.00 95 1011.3
20260510082604 16 194 0.0 0.0 0.00 0.00 0.00 95 1011.3
20260510082100 15 194 0.0 0.0 0.00 0.00 0.00 95 1011.6
20260510081555 16 194 0.0 0.0 0.00 0.00 0.00 95 1011.5
20260510081051 16 195 0.0 0.0 0.00 0.00 0.00 95 1011.5
20260510080550 15 195 0.0 0.0 0.00 0.00 0.00 95 1011.3
20260510080047 15 195 0.0 0.0 0.00 0.00 0.00 95 1011.3
20260510075544 15 195 0.0 0.0 0.00 0.00 0.00 95 1011.3
20260510075041 15 194 0.0 0.0 0.00 0.00 0.00 95 1011.3
20260510074539 15 194 0.0 0.0 0.00 0.00 0.00 95 1011.1
20260510074034 15 194 0.0 0.0 0.00 0.00 0.00 95 1011.2
20260510073530 15 194 0.0 0.0 0.00 0.00 0.00 95 1011.2
20260510073027 15 194 0.0 0.0 0.00 0.00 0.00 95 1011.1
20260510072524 15 194 0.0 0.0 0.00 0.00 0.00 95 1011.4
20260510072019 15 194 0.0 0.0 0.00 0.00 0.00 95 1011.3
20260510071516 16 195 0.0 0.0 0.00 0.00 0.00 95 1011.1
20260510071015 16 195 0.0 0.0 0.00 0.00 0.00 95 1011.1
20260510070511 15 194 0.0 0.0 0.00 0.00 0.00 95 1010.9
20260510070008 15 194 0.0 0.0 0.00 0.00 0.00 95 1011.2
20260510065504 15 194 0.0 0.0 0.00 0.00 0.00 95 1011.4
20260510065000 16 194 0.0 0.0 0.00 0.00 0.00 95 1011.3
20260510064457 16 194 0.0 0.0 0.00 0.00 0.00 95 1011.3
20260510063953 16 195 0.0 0.0 0.00 0.00 0.00 95 1011.2
20260510063450 16 195 0.0 0.0 0.00 0.00 0.00 95 1011.1
20260510062948 16 195 0.0 0.0 0.00 0.00 0.00 95 1011.2
20260510062443 16 195 0.0 0.0 0.00 0.00 0.00 95 1011.0
20260510061938 16 194 0.0 0.0 0.00 0.00 0.00 95 1010.9
20260510061435 16 194 0.0 0.0 0.00 0.00 0.00 95 1011.0
20260510060931 16 194 0.0 0.0 0.00 0.00 0.00 95 1011.2
20260510060428 16 194 0.0 0.0 0.00 0.00 0.00 95 1011.2
20260510055924 16 194 0.0 0.0 0.00 0.00 0.00 95 1011.3
20260510055420 16 194 0.0 0.0 0.00 0.00 0.00 95 1011.3
20260510054919 16 194 0.0 0.0 0.00 0.00 0.00 95 1011.7
20260510054414 16 194 0.0 0.0 0.00 0.00 0.00 95 1011.4
20260510053909 16 195 0.0 0.0 0.00 0.00 0.00 95 1011.6
20260510053405 16 195 0.0 0.0 0.00 0.00 0.00 95 1011.4
20260510052901 16 195 0.0 0.0 0.00 0.00 0.00 95 1011.5
20260510052357 16 194 0.0 0.0 0.00 0.00 0.00 95 1011.6
20260510051854 16 194 0.0 0.0 0.00 0.00 0.00 95 1011.7
20260510051350 16 194 0.0 0.0 0.00 0.00 0.00 95 1011.5
20260510050847 16 194 0.0 0.0 0.00 0.00 0.00 95 1011.8
20260510050344 16 194 0.0 0.0 0.00 0.00 0.00 95 1011.7
20260510045841 16 194 0.0 0.0 0.00 0.00 0.00 95 1011.6
20260510045337 16 194 0.0 0.0 0.00 0.00 0.00 95 1012.1
20260510044835 16 194 0.0 0.0 0.00 0.00 0.00 95 1011.8
20260510044331 16 194 0.0 0.0 0.00 0.00 0.00 95 1012.0
20260510043828 16 194 0.0 0.0 0.00 0.00 0.00 95 1011.7
20260510043324 16 194 0.0 0.0 0.00 0.00 0.00 95 1011.8
20260510042822 16 195 0.0 0.0 0.00 0.00 0.00 95 1011.9
20260510042318 16 195 0.0 0.0 0.00 0.00 0.00 95 1011.6
20260510041814 16 195 0.0 0.0 0.00 0.00 0.00 95 1011.8
20260510041311 16 195 0.0 0.0 0.00 0.00 0.00 95 1011.7
20260510040809 16 195 0.0 0.0 0.00 0.00 0.00 95 1011.8
20260510040305 16 195 0.0 0.0 0.00 0.00 0.00 95 1011.7
20260510035801 16 195 0.0 0.0 0.00 0.00 0.00 95 1011.6
20260510035256 16 194 0.0 0.0 0.00 0.00 0.00 95 1011.6
20260510034752 16 194 0.0 0.0 0.00 0.00 0.00 95 1011.7
20260510034250 16 194 0.0 0.0 0.00 0.00 0.00 95 1011.4
20260510033747 16 194 0.0 0.0 0.00 0.00 0.00 95 1011.6
20260510033244 16 194 0.0 0.0 0.00 0.00 0.00 95 1011.3
20260510032740 16 194 0.0 0.0 0.00 0.00 0.00 95 1011.5
20260510032237 16 194 0.0 0.0 0.00 0.00 0.00 95 1011.6
20260510031732 16 194 0.0 0.0 0.00 0.00 0.00 95 1011.5
20260510031228 16 194 0.0 0.0 0.00 0.00 0.00 95 1011.4
20260510030727 16 194 0.0 0.0 0.00 0.00 0.00 95 1011.5
20260510030225 16 194 0.0 0.0 0.00 0.00 0.00 95 1011.4
20260510025722 16 194 0.0 0.0 0.00 0.00 0.00 95 1011.4
20260510025219 16 194 0.0 0.0 0.00 0.00 0.00 95 1011.3
20260510024716 16 194 0.0 0.0 0.00 0.00 0.00 95 1011.4
20260510024213 16 194 0.0 0.0 0.00 0.00 0.00 95 1011.5
20260510023708 16 194 0.0 0.0 0.00 0.00 0.00 95 1011.1
20260510023206 16 194 0.0 0.0 0.00 0.00 0.00 95 1011.2
20260510022702 16 194 0.0 0.0 0.00 0.00 0.00 94 1011.4
20260510022156 17 194 0.0 0.0 0.00 0.00 0.00 94 1011.0
20260510021652 17 194 0.0 0.0 0.00 0.00 0.00 94 1011.4
20260510021150 17 194 0.0 0.0 0.00 0.00 0.00 94 1011.3
20260510020644 17 194 0.0 0.0 0.00 0.00 0.00 94 1011.1
20260510020139 17 194 0.0 0.0 0.00 0.00 0.00 94 1011.1
20260510015636 17 194 0.0 0.0 0.00 0.00 0.00 94 1011.1
20260510015133 17 194 0.0 0.0 0.00 0.00 0.00 93 1011.4
20260510014627 17 194 0.0 0.0 0.00 0.00 0.00 93 1011.1
20260510014125 17 194 0.0 0.0 0.00 0.00 0.00 93 1011.1
20260510013625 17 194 0.0 0.0 0.00 0.00 0.00 92 1010.6
20260510013121 17 194 0.0 0.0 0.00 0.00 0.00 92 1010.5
20260510012620 17 194 0.0 0.0 0.00 0.00 0.00 92 1010.5
20260510012117 17 194 0.0 0.0 0.00 0.00 0.00 92 1010.2
20260510011616 17 194 0.0 0.0 0.00 0.00 0.00 91 1010.3
20260510011113 17 194 0.0 0.0 0.00 0.00 0.00 91 1010.3
20260510010609 18 194 0.0 0.0 0.00 0.00 0.00 91 1010.4
20260510010107 18 194 0.0 0.0 0.00 0.00 0.00 90 1010.3
20260510005602 18 194 0.0 0.0 0.00 0.00 0.00 90 1010.4
20260510005100 18 194 0.0 0.0 0.00 0.00 0.00 89 1010.2
20260510004557 18 194 0.0 0.0 0.00 0.00 0.00 88 1010.1
20260510004055 18 194 0.0 0.0 0.00 0.00 0.00 87 1010.0
20260510003552 18 194 0.0 0.0 0.00 0.00 0.00 87 1010.1
20260510003047 19 194 0.0 0.0 0.00 0.00 0.00 86 1010.2
20260510002543 19 194 0.0 0.0 0.00 0.00 0.00 86 1010.1
20260510002040 20 194 0.0 0.0 0.00 0.00 0.00 85 1010.1
20260510001537 20 194 0.0 0.0 0.00 0.00 0.00 85 1010.0
20260510001036 20 194 0.0 0.0 0.00 0.00 0.00 84 1010.2
20260510000530 20 194 0.0 0.0 0.00 0.00 0.00 83 1010.2
20260510000027 20 194 0.0 0.0 0.00 0.00 0.00 83 1009.9
20260509235524 20 194 0.0 0.0 0.00 0.00 0.00 82 1010.2
20260509235021 20 194 0.0 0.0 0.00 0.00 0.00 82 1009.9
20260509234517 21 210 0.0 0.0 0.00 0.00 0.00 82 1010.0
20260509234015 21 209 0.0 0.0 0.00 0.00 0.00 81 1009.9
20260509233512 21 210 0.0 0.0 0.00 0.00 0.00 80 1010.0
20260509233010 21 210 0.0 0.0 0.00 0.00 0.00 80 1009.6
20260509232506 21 209 0.0 0.0 0.00 0.00 0.00 79 1009.5
20260509232002 21 209 0.0 0.0 0.00 0.00 0.00 78 1009.4
20260509231459 22 209 0.0 0.0 0.00 0.00 0.00 78 1009.4
20260509230957 22 206 0.0 0.0 0.00 0.00 0.00 78 1009.4
20260509230453 22 211 0.0 0.0 0.00 0.00 0.00 77 1009.5
20260509225950 22 224 1.6 1.6 0.00 0.00 0.00 77 1009.4
20260509225446 22 213 0.0 0.0 0.00 0.00 0.00 78 1009.4
20260509224942 22 210 0.0 0.0 0.00 0.00 0.00 77 1009.4
20260509224437 22 210 0.0 0.0 0.00 0.00 0.00 76 1009.3
20260509223935 22 245 3.2 3.2 0.00 0.00 0.00 76 1009.3
20260509223431 22 214 0.0 0.0 0.00 0.00 0.00 76 1009.3
20260509222929 22 213 0.0 1.6 0.00 0.00 0.00 75 1009.5
20260509222424 22 216 0.0 0.0 0.00 0.00 0.00 75 1009.5
20260509221920 22 206 0.0 0.0 0.00 0.00 0.00 76 1009.4
20260509221417 22 210 0.0 1.6 0.00 0.00 0.00 76 1009.4
20260509220912 22 211 0.0 0.0 0.00 0.00 0.00 76 1009.6
20260509220408 22 205 0.0 1.6 0.00 0.00 0.00 76 1009.7
20260509215904 22 212 1.6 1.6 0.00 0.00 0.00 75 1009.5
20260509215400 22 209 0.0 0.0 0.00 0.00 0.00 75 1009.2
20260509214858 22 205 0.0 0.0 0.00 0.00 0.00 75 1009.4
20260509214355 22 224 1.6 1.6 0.00 0.00 0.00 74 1009.3
20260509213852 22 211 1.6 1.6 0.00 0.00 0.00 74 1009.4
20260509213347 22 206 0.0 1.6 0.00 0.00 0.00 74 1009.3
20260509212845 22 209 1.6 4.8 0.00 0.00 0.00 74 1009.3
20260509212343 22 247 1.6 1.6 0.00 0.00 0.00 75 1009.3
20260509211838 22 209 0.0 1.6 0.00 0.00 0.00 75 1009.3
20260509211334 22 224 1.6 3.2 0.00 0.00 0.00 75 1009.4
20260509210831 22 226 3.2 3.2 0.00 0.00 0.00 75 1009.4
20260509210329 22 157 1.6 1.6 0.00 0.00 0.00 74 1009.3
20260509205828 22 205 1.6 3.2 0.00 0.00 0.00 73 1009.4
20260509205323 22 133 0.0 3.2 0.00 0.00 0.00 73 1009.2
20260509204820 22 218 0.0 1.6 0.00 0.00 0.00 71 1009.1
20260509204316 22 202 0.0 1.6 0.00 0.00 0.00 73 1009.0
20260509203812 22 262 3.2 4.8 0.00 0.00 0.00 73 1009.2
20260509203309 22 208 0.0 0.0 0.00 0.00 0.00 75 1009.4
20260509202805 22 216 0.0 0.0 0.00 0.00 0.00 75 1009.1
20260509202301 21 246 3.2 3.2 0.00 0.00 0.00 75 1009.3
20260509201801 21 243 4.8 4.8 0.00 0.00 0.00 76 1009.5
20260509201258 21 206 1.6 1.6 0.00 0.00 0.00 76 1009.6
20260509200754 21 213 0.0 1.6 0.00 0.00 0.00 77 1009.5
20260509200250 21 205 0.0 0.0 0.00 0.00 0.00 77 1009.3
20260509195746 21 212 1.6 1.6 0.00 0.00 0.00 76 1009.8
20260509195241 21 219 1.6 1.6 0.00 0.00 0.00 76 1009.6
20260509194736 21 186 1.6 1.6 0.00 0.00 0.00 75 1009.4
20260509194233 21 214 0.0 1.6 0.00 0.00 0.00 74 1009.7
20260509193730 21 213 1.6 1.6 0.00 0.00 0.00 74 1009.6
20260509193229 21 204 0.0 1.6 0.00 0.00 0.00 74 1009.6
20260509192726 21 216 1.6 1.6 0.00 0.00 0.00 74 1009.9
20260509192221 21 208 0.0 0.0 0.00 0.00 0.00 74 1009.9
20260509191716 21 297 3.2 3.2 0.00 0.00 0.00 73 1010.0
20260509191213 21 226 1.6 1.6 0.00 0.00 0.00 73 1009.9